Flag for Taiwan Weather past 2 weeks in Kaohsiung, Taiwan

Now
84 °F

Scattered clouds.


Feels Like: 91 °F
Forecast: 75 / 86 °F
Wind: 9 mph from Southwest

Location: Kaohsiung International Airport

Current Time: Apr 28, 2015 at 10:34:15 AM

Latest Report: Apr 28, 2015 at 10:00 AM


Visibility: N/A

Pressure: 29.89 "Hg

Humidity: 70%

Dew point: 73 °F

Location of KaohsiungLocation

Historic Weather in Kaohsiung — Graph

°F

Kaohsiung temperature yesterday

Maximum temperature yesterday: 88 °F (at 1:30 PM)
Minimum temperature yesterday: 75 °F (at 4:00 AM)
Average temperature yesterday: 82 °F

Past Weeks' High & Low Weather Summary

 TemperatureHumidityPressure
High90 °F (Apr 19, 2:30 PM)94% (Apr 19, 5:00 AM)30.09 "Hg (Apr 19, 5:00 AM)
Low63 °F (Apr 15, 4:00 AM)18% (Apr 14, 10:30 AM)29.77 "Hg (Apr 19, 3:00 PM)
Average80 °F66%29.95 "Hg
* Reported Apr 13 9:00 AM — Apr 28 9:30 AM, Kaohsiung, Weather by CustomWeather, © 2015

Note: Actual official high and low records may vary slightly from our data, if they occured in-between our weather recording intervals... More about our weather records

Advertising

Kaohsiung weather history for previous 24 hours

 ConditionsComfort  
Time TempWeatherWind HumidityBarometerVisibility
9:30 AM
Tue, Apr 28
84 °FScattered clouds.8 mph66%29.89 "HgN/A
9:00 AM84 °FScattered clouds.5 mph70%29.89 "HgN/A
8:30 AM81 °FScattered clouds.5 mph74%29.89 "Hg5 mi
8:00 AM81 °FBroken clouds.6 mph74%29.89 "Hg4 mi
7:30 AM79 °FScattered clouds.6 mph84%29.89 "Hg4 mi
7:00 AM77 °FFog.9 mph89%29.89 "Hg3 mi
6:30 AM75 °FFog.8 mph94%29.89 "Hg3 mi
6:00 AM75 °FFog.3 mph89%29.89 "Hg2 mi
5:00 AM75 °FFog.8 mph89%29.86 "Hg2 mi
4:00 AM79 °FPartly cloudy.3 mph70%29.86 "Hg4 mi
3:00 AM79 °FPartly cloudy.5 mph70%29.86 "Hg5 mi
2:00 AM81 °FPartly cloudy.5 mph62%29.89 "HgN/A
1:00 AM81 °FPartly cloudy.3 mph62%29.89 "HgN/A
12:00 AM81 °FPassing clouds.3 mph62%29.89 "HgN/A
11:30 PM
Mon, Apr 27
81 °FPassing clouds.3 mph62%29.92 "HgN/A
11:00 PM81 °FPassing clouds.5 mph62%29.92 "HgN/A
10:30 PM81 °FPassing clouds.5 mph62%29.92 "HgN/A
10:00 PM81 °FPartly cloudy.2 mph62%29.92 "HgN/A
9:30 PM81 °FPartly cloudy.2 mph62%29.92 "HgN/A
9:00 PM81 °FPassing clouds.3 mph62%29.92 "HgN/A
8:30 PM81 °FPassing clouds.3 mph62%29.92 "HgN/A
8:00 PM81 °FPassing clouds.6 mph62%29.92 "HgN/A
7:30 PM81 °FPassing clouds.6 mph66%29.92 "HgN/A
7:00 PM81 °FPassing clouds.5 mph66%29.92 "HgN/A
6:30 PM81 °FPassing clouds.8 mph70%29.92 "HgN/A
6:00 PM81 °FPartly sunny.9 mph62%29.89 "HgN/A
5:30 PM82 °FBroken clouds.10 mph66%29.89 "HgN/A
5:00 PM84 °FBroken clouds.10 mph62%29.89 "HgN/A
4:30 PM84 °FBroken clouds.9 mph62%29.89 "HgN/A
4:00 PM84 °FBroken clouds.10 mph66%29.89 "HgN/A
3:30 PM84 °FScattered clouds.13 mph66%29.89 "HgN/A
3:00 PM86 °FScattered clouds.14 mph59%29.89 "HgN/A
2:30 PM88 °FScattered clouds.12 mph52%29.89 "HgN/A
2:00 PM86 °FScattered clouds.12 mph55%29.89 "HgN/A
1:30 PM88 °FScattered clouds.13 mph55%29.92 "HgN/A
1:00 PM86 °FPassing clouds.12 mph59%29.92 "HgN/A
12:30 PM86 °FPassing clouds.13 mph59%29.95 "Hg6 mi
12:00 PM84 °FScattered clouds.13 mph62%29.95 "Hg4 mi
11:30 AM86 °FScattered clouds.10 mph62%29.95 "Hg4 mi
11:00 AM86 °FScattered clouds.10 mph59%29.98 "Hg4 mi
10:30 AM84 °FPartly sunny.9 mph58%29.98 "Hg4 mi
10:00 AM84 °FPartly sunny.7 mph66%29.98 "Hg4 mi
Weather by CustomWeather, © 2015

See weather overviewHow to use our weather pages